Orbital Elements at Epoch 2459000.5 (2020-May-31.0) TDB
Reference: JPL 23 (heliocentric ecliptic J2000)
Element | Value | Uncertainty (1-sigma) | Units |
e | .03656758049898477 | 6.3663e-08 | |
a | 3.084035418059198 | 2.691e-08 | au |
q | 2.971259704647598 | 1.9989e-07 | au |
i | 9.129251679218196 | 5.0958e-06 | deg |
node | 299.8564512453175 | 3.5426e-05 | deg |
peri | 235.0223990623758 | 7.748e-05 | deg |
M | 277.7571613101654 | 7.0309e-05 | deg |
tp | 2459452.431958396497 (2021-Aug-25.93195840) | 0.00038822 | TDB |
period | 1978.233091349369 5.42 | 2.5892e-05 7.089e-08 | d yr |
n | .1819805773011517 | 2.3818e-09 | deg/d |
Q | 3.196811131470798 | 2.7894e-08 | au |
|
| | Orbit Determination Parameters
Additional Information
|